Home > Time Zones > World Clock > Weather > China > Hefei > Past weeks

Flag for China Weather past 2 weeks in Hefei, Anhui, China

Now
81 °F

Broken clouds.


Feels Like: 84 °F
Forecast: 66 / 72 °F
Wind: 3 mph from North

Location: Hefei Airport

Current Time: Sep 17, 2014 at 12:35:30 PM

Latest Report: Sep 17, 2014 at 12:00 PM


Visibility: 3 mi

Pressure: 29.98 "Hg

Humidity: 70%

Dew point: 70 °F

Location of HefeiLocation

Historic Weather in Hefei — Graph

°F

Hefei temperature yesterday

Maximum temperature yesterday: 81 °F (at 2:00 PM)
Minimum temperature yesterday: 68 °F (at 4:00 AM)
Average temperature yesterday: 73 °F

Past Weeks' High & Low Weather Summary

 TemperatureHumidityPressure
High88 °F (Sep 7, 1:00 PM)100% (Sep 2, 2:00 PM)30.01 "Hg (Sep 2, 2:00 PM)
Low63 °F (Sep 12, 2:00 PM)54% (Sep 4, 3:00 PM)29.74 "Hg (Sep 7, 3:00 PM)
Average73 °F88%29.84 "Hg
* Reported Sep 2 11:00 AM — Sep 17 11:00 AM, Hefei, Weather by CustomWeather, © 2014

Note: Actual official high and low records may vary slightly from our data, if they occured in-between our weather recording intervals... More about our weather records

Advertising

Hefei weather history for previous 24 hours

 ConditionsComfort  
Time TempWeatherWind HumidityBarometerVisibility
11:00 AM
Sep 17
79 °FScattered clouds.3 mph74%29.98 "Hg4 mi
10:00 AM77 °FClear.3 mph79%30.01 "Hg4 mi
9:00 AM73 °FFog.6 mph83%30.01 "Hg3 mi
8:00 AM72 °FFog.6 mph88%29.98 "Hg3 mi
7:00 AM70 °FFog.6 mph94%29.98 "Hg3 mi
6:00 AM68 °FFog.3 mph94%29.98 "Hg2 mi
5:00 AM68 °FFog.3 mph94%29.95 "Hg2 mi
4:00 AM68 °FFog.3 mph94%29.92 "Hg3 mi
3:00 AM70 °FFog.3 mph94%29.92 "Hg3 mi
2:00 AM70 °FFog.8 mph94%29.92 "Hg3 mi
1:00 AM72 °FFog.3 mph88%29.95 "Hg3 mi
12:00 AM72 °FFog.3 mph94%29.95 "Hg3 mi
11:00 PM
Sep 16
72 °FFog.3 mph94%29.98 "Hg2 mi
10:00 PM72 °FFog.3 mph94%29.95 "Hg2 mi
9:00 PM72 °FFog.3 mph88%29.95 "Hg3 mi
8:00 PM73 °FPassing clouds.6 mph83%29.95 "Hg4 mi
7:00 PM75 °FPassing clouds.6 mph78%29.92 "Hg4 mi
6:00 PM75 °FPartly sunny.6 mph78%29.89 "Hg4 mi
5:00 PM77 °FOvercast.8 mph74%29.89 "Hg5 mi
4:00 PM79 °FPartly sunny.8 mph70%29.89 "HgN/A
3:00 PM81 °FPartly sunny.8 mph66%29.89 "HgN/A
2:00 PM81 °FPartly sunny.10 mph66%29.89 "HgN/A
1:00 PM79 °FPartly sunny.10 mph70%29.92 "HgN/A
12:00 PM79 °FPartly sunny.10 mph70%29.95 "Hg5 mi
Weather by CustomWeather, © 2014

See weather overviewHow to use our weather pages